User: anonymous   Login
Location: Unspecified
(0.0000°N, 0.0000°E)
Time: 02:56:53
(UTC+00:00)
Language:

ONEWEB-0259 - Orbit

View from above orbital plane
View from above orbital plane
View from above satellite
View from above satellite

Ground track
Ground track

The orbit is defined by the following mean orbital elements,

1 48977U          26145.52691803 +.00000000 +00000-0 +25803-3 0 00001
2 48977  87.9104 233.2814 0001852 103.8739 256.2598 13.16593667    00
Epoch (UTC): 25 May 2026 12:38:45
Eccentricity: 0.0001852
inclination: 87.9104°
perigee height: 1196 km
apogee height: 1199 km
right ascension of ascending node: 233.2814°
argument of perigee: 103.8739°
revolutions per day: 13.16593667
mean anomaly at epoch: 256.2598°

The dashed part of the orbit path shows where the satellite is in the earth's shadow,  

DLR